Home > Weather > Mount Isa > Past weeks

Flag for Australia Past Weather in Mount Isa, Queensland, Australia — Yesterday and Last 2 Weeks

Now
73 °F

Sunny.


Feels Like: 77 °F
Forecast: 49 / 86 °F
Wind: 12 mph from East

Location: Mount Isa Amo

Current Time: Jul 31, 2016 at 11:47:59 AM

Latest Report: Jul 31, 2016 at 11:00 AM


Visibility: N/A

Pressure: 30.07 "Hg

Humidity: 31%

Dew Point: 41 °F

Location of Mount IsaLocation

Past Weather in Mount Isa — Graph

°F

Mount Isa Temperature Yesterday

Maximum temperature yesterday: 79 °F (at 3:00 PM)
Minimum temperature yesterday: 43 °F (at 5:30 AM)
Average temperature yesterday: 61 °F

High & Low Weather Summary for the Past Weeks

 TemperatureHumidityPressure
High88 °F (Jul 22, 3:00 PM)100% (Jul 19, 2:00 AM)30.24 "Hg (Jul 19, 2:00 AM)
Low43 °F (Jul 29, 5:30 AM)17% (Jul 30, 4:00 PM)29.92 "Hg (Jul 18, 3:00 PM)
Average65 °F56%30.06 "Hg
* Reported Jul 16 10:00 AM — Jul 31 10:30 AM, Mount Isa, Weather by CustomWeather, © 2016

Note: Actual official high and low records may vary slightly from our data, if they occured in-between our weather recording intervals... More about our weather records

Advertising

Mount Isa Weather History for the Previous 24 Hours

Scroll right to see more
 ConditionsComfort  
Time TempWeatherWind HumidityBarometerVisibility
10:30 AM
Sun, Jul 31
72 °FSunny.9 mph33%30.07 "HgN/A
10:00 AM70 °FSunny.9 mph33%30.07 "HgN/A
9:30 AM68 °FSunny.6 mph35%30.07 "HgN/A
9:00 AM63 °FSunny.3 mph39%30.07 "HgN/A
8:30 AM55 °FSunny.No wind51%30.07 "HgN/A
8:00 AM50 °FSunny.No wind67%30.07 "HgN/A
7:30 AM45 °FSunny.No wind66%30.07 "HgN/A
7:00 AM48 °FSunny.6 mph58%30.04 "HgN/A
6:30 AM52 °FSunny.6 mph54%30.04 "HgN/A
6:00 AM52 °FClear.6 mph54%30.04 "HgN/A
5:30 AM52 °FClear.7 mph54%30.04 "HgN/A
5:00 AM52 °FClear.6 mph58%30.04 "HgN/A
4:00 AM45 °FClear.5 mph71%30.04 "HgN/A
3:30 AM45 °FClear.1 mph66%30.04 "HgN/A
3:00 AM48 °FClear.6 mph58%30.04 "HgN/A
2:30 AM54 °FClear.3 mph51%30.04 "HgN/A
2:00 AM54 °FClear.5 mph54%30.04 "HgN/A
1:30 AM48 °FClear.6 mph62%30.04 "HgN/A
1:00 AM50 °FClear.No wind54%30.04 "HgN/A
12:00 AM59 °FClear.7 mph42%30.04 "HgN/A
11:00 PM
Sat, Jul 30
55 °FClear.5 mph44%30.04 "HgN/A
10:00 PM63 °FClear.7 mph34%30.04 "HgN/A
9:30 PM63 °FClear.8 mph34%30.04 "HgN/A
9:00 PM64 °FClear.9 mph32%30.04 "HgN/A
8:00 PM61 °FClear.7 mph39%30.04 "HgN/A
7:00 PM63 °FClear.6 mph34%30.01 "HgN/A
6:30 PM70 °FClear.6 mph29%30.01 "HgN/A
6:00 PM75 °FClear.7 mph22%30.01 "HgN/A
5:30 PM77 °FClear.9 mph18%30.01 "HgN/A
5:00 PM77 °FSunny.8 mph19%30.01 "HgN/A
4:00 PM79 °FSunny.10 mph17%30.01 "HgN/A
3:00 PM79 °FSunny.7 mph20%30.01 "HgN/A
2:30 PM77 °FSunny.6 mph21%30.04 "HgN/A
2:00 PM77 °FSunny.6 mph21%30.04 "HgN/A
1:00 PM75 °FSunny.9 mph24%30.07 "HgN/A
12:30 PM73 °FSunny.9 mph25%30.09 "HgN/A
12:00 PM73 °FSunny.10 mph25%30.09 "HgN/A
11:00 AM72 °FSunny.13 mph29%30.12 "HgN/A
Weather by CustomWeather, © 2016

See weather overviewHow to use our weather pages